Starlink 35619

operational
NORAD ID: 66257 Int'l Des: 2025-245 Owner: SPXS Country: US Constellation: starlink
LEOCIRCULAR

About Starlink 35619

Description loading...

Live Position

Loading 3D Globe...

Upcoming Passes

Altitude History

Altitude vs Time

uPlot chart will show altitude changes over time

Two-Line Element Set

1 66257C 25245Y 25303.07687500 .00487700 00000+0 76275-3 0 3034
2 66257 53.1600 182.3328 0004617 306.1844 138.3999 16.02778443 19
Epoch: Oct 30, 2025 • Age: 19 hours

Current Status

Altitude 264.2 km
Velocity 7.75 km/s
Sub-Earth Point -3.54°S, 154.91°W
Launch Date Oct 29, 2025
Age 1 days
Type internet

Technical Details

Classification Payload
Mass 575.00 kg
Dry Mass 530.00 kg
Total Mass 575.00 kg
Length 0.30 m
Diameter 4.10 m
Span 29.00 m
Shape Box + pan
Manufacturer SPXS
Bus Type Starlink V2MO
Phase Status In Orbit
Owner/State SPXS/US

Large Constellations

Loading constellations...